Weather History for Doha, Qatar

Change the Weather History Date:

Friday, October 28, 2011

  Actual Average Record
Temperature  
Mean Temperature 85 °F -  
Max Temperature 93 °F 86 °F 96 °F (2000)
Min Temperature 77 °F 67 °F 75 °F (1997)
Cooling Degree Days 20    
Growing Degree Days 35 (Base 50)    
Moisture  
Dew Point 68 °F    
Average Humidity 58    
Maximum Humidity 83    
Minimum Humidity 28    
Precipitation  
Precipitation 0.00 in 0.00 in - ()
Sea Level Pressure  
Sea Level Pressure 29.92 in    
Wind  
Wind Speed 5 mph ()    
Max Wind Speed 14 mph    
Max Gust Speed -    
Visibility 6.4 miles    
Events      
Averages and records for this station are not official NWS values.
T = Trace of Precipitation, MM = Missing Value Source: Averaged Metar Reports

Daily Weather History Graph

Daily Weather History Graph

Search for Another Location

Airport:

Trip Planner

Search our weather history database for the weather conditions in past years. The results will help you decide how hot, cold, wet, or windy it might be!

Date:

Astronomy

Oct. 28, 2011 Rise Set
Actual Time 5:38 AM AST 4:56 PM AST
Civil Twilight 5:15 AM AST 5:19 PM AST
Nautical Twilight 4:48 AM AST 5:46 PM AST
Astronomical Twilight 4:21 AM AST 6:13 PM AST
Moon 7:11 AM AST (10/28) 6:13 PM AST (10/28)
Length of Visible Light 12h 04m
Length of Day
11h 17m
Waxing Crescent, 4% of the Moon is Illuminated
Oct 28
Waxing Crescent
Nov 2
First Quarter
Nov 10
Full
Nov 18
Last Quarter
Nov 25
New

Hourly Weather History & Observations

Time (AST) Temp. Heat Index Dew Point Humidity Pressure Visibility Wind Dir Wind Speed Gust Speed Precip Events Conditions
12:00 AM 84.2 °F 87.3 °F 68.0 °F 58% 29.95 in - SE 5.8 mph - N/A   Clear
12:30 AM 82.4 °F 87.2 °F 71.6 °F 70% 29.92 in - Variable 2.3 mph - N/A   Clear
1:00 AM 82.4 °F 87.2 °F 71.6 °F 70% 29.92 in - SSE 4.6 mph - N/A   Clear
2:00 AM 82.4 °F 88.2 °F 73.4 °F 74% 29.92 in - Variable 2.3 mph - N/A   Clear
2:30 AM 82.4 °F 88.2 °F 73.4 °F 74% 29.92 in - SW 3.5 mph - N/A   Clear
3:00 AM 80.6 °F 85.4 °F 73.4 °F 79% 29.92 in - Variable 1.2 mph - N/A   Clear
3:30 AM 80.6 °F 85.4 °F 73.4 °F 79% 29.92 in - Calm Calm - N/A   Clear
4:00 AM 80.6 °F 84.6 °F 71.6 °F 74% 29.92 in - Variable 2.3 mph - N/A   Clear
4:30 AM 80.6 °F 85.4 °F 73.4 °F 79% 29.92 in - Calm Calm - N/A   Clear
5:00 AM 78.8 °F - 71.6 °F 78% 29.95 in - Variable 2.3 mph - N/A   Clear
5:30 AM 78.8 °F - 73.4 °F 83% 29.95 in - WSW 3.5 mph - N/A   Clear
6:00 AM 78.8 °F - 73.4 °F 83% 29.95 in - Variable 2.3 mph - N/A   Clear
6:30 AM 80.6 °F 85.4 °F 73.4 °F 79% 29.95 in 5.6 mi SW 3.5 mph - N/A   Unknown
7:00 AM 80.6 °F 85.4 °F 73.4 °F 79% 29.98 in 5.6 mi South 3.5 mph - N/A   Unknown
7:30 AM 84.2 °F 90.9 °F 73.4 °F 70% 29.98 in 5.6 mi SSW 3.5 mph - N/A   Unknown
8:00 AM 84.2 °F 92.3 °F 75.2 °F 74% 29.98 in 5.6 mi South 3.5 mph - N/A   Unknown
8:30 AM 86.0 °F 93.4 °F 73.4 °F 66% 29.98 in 5.6 mi SSE 3.5 mph - N/A   Unknown
9:00 AM 88 °F - 71 °F 47% 30.00 in 6 mi SSE 5.8 mph - -  
9:00 AM 87.8 °F 93.8 °F 71.6 °F 58% 29.98 in - SSE 5.8 mph - N/A   Clear
9:30 AM 91.4 °F 93.2 °F 64.4 °F 41% 29.98 in - SE 8.1 mph - N/A   Clear
10:00 AM 91.4 °F 96.8 °F 69.8 °F 49% 29.98 in - SE 9.2 mph - N/A   Clear
10:30 AM 91.4 °F 93.2 °F 64.4 °F 41% 29.98 in - SE 10.4 mph - N/A   Clear
11:00 AM 91.4 °F 89.4 °F 55.4 °F 29% 29.95 in - SSE 11.5 mph - N/A   Clear
11:30 AM 93.2 °F 91.3 °F 55.4 °F 28% 29.95 in - SE 10.4 mph - N/A   Clear
12:00 PM 93.2 °F 91.3 °F 55.4 °F 28% 29.92 in - SSE 10.4 mph - N/A   Clear
12:30 PM 93.2 °F 91.3 °F 55.4 °F 28% 29.92 in - SE 8.1 mph - N/A   Clear
1:00 PM 93.2 °F 91.3 °F 55.4 °F 28% 29.89 in - SE 8.1 mph - N/A   Clear
1:30 PM 93.2 °F 92.6 °F 59.0 °F 32% 29.89 in - ESE 11.5 mph - N/A   Clear
2:00 PM 93.2 °F 93.3 °F 60.8 °F 34% 29.89 in - ESE 11.5 mph - N/A   Clear
2:30 PM 91.4 °F 94.0 °F 66.2 °F 43% 29.89 in 6.2 mi East 13.8 mph - N/A   Partly Cloudy
3:00 PM 90 °F - 67 °F 37% 29.89 in 9 mi ESE 11.5 mph - -   Scattered Clouds
3:00 PM 89.6 °F 93.4 °F 68.0 °F 49% 29.89 in 6.2 mi ESE 11.5 mph - N/A   Partly Cloudy
3:30 PM 89.6 °F 93.4 °F 68.0 °F 49% 29.89 in 6.2 mi ESE 11.5 mph - N/A   Partly Cloudy
4:00 PM 89.6 °F 92.2 °F 66.2 °F 46% 29.89 in - ESE 10.4 mph - N/A   Clear
4:30 PM 87.8 °F 89.4 °F 64.4 °F 46% 29.89 in - SE 9.2 mph - N/A   Clear
5:00 PM 86.0 °F 89.4 °F 68.0 °F 55% 29.89 in - SE 9.2 mph - N/A   Clear
5:30 PM 86.0 °F 89.4 °F 68.0 °F 55% 29.89 in - ESE 6.9 mph - N/A   Clear
6:00 PM 86.0 °F 87.3 °F 64.4 °F 48% 29.89 in - SE 6.9 mph - N/A   Clear
6:30 PM 84.2 °F 86.6 °F 66.2 °F 55% 29.89 in - SE 5.8 mph - N/A   Clear
7:00 PM 84.2 °F 86.6 °F 66.2 °F 55% 29.89 in - SE 5.8 mph - N/A   Clear
7:30 PM 84.2 °F 87.3 °F 68.0 °F 58% 29.92 in - SE 4.6 mph - N/A   Clear
8:00 PM 82.4 °F 86.3 °F 69.8 °F 66% 29.92 in - Variable 2.3 mph - N/A   Clear
8:30 PM 82.4 °F 84.6 °F 66.2 °F 58% 29.92 in - East 4.6 mph - N/A   Clear
9:00 PM 82 °F - 67 °F 53% 29.91 in 9 mi East 3.5 mph - -  
9:00 PM 82.4 °F 85.4 °F 68.0 °F 62% 29.89 in - East 3.5 mph - N/A   Clear
9:30 PM 82.4 °F 86.3 °F 69.8 °F 66% 29.92 in - East 4.6 mph - N/A   Clear
10:00 PM 82.4 °F 86.3 °F 69.8 °F 66% 29.92 in - East 4.6 mph - N/A   Clear
10:30 PM 80.6 °F 83.9 °F 69.8 °F 70% 29.89 in - East 3.5 mph - N/A   Clear
11:00 PM 80.6 °F 84.6 °F 71.6 °F 74% 29.89 in - East 3.5 mph - N/A   Clear
11:30 PM 80.6 °F 84.6 °F 71.6 °F 74% 29.89 in - ESE 4.6 mph - N/A   Clear